Knox, IN

1:11 AM CST on January 18, 2018 (GMT -0600)
Starke County

Weather History for KOXI - June, 2014

Change the Weather History Date:

Thursday, June 12, 2014

  Actual Average (KRCR) Record (KRCR)
Temperature  
Mean Temperature 71 °F -  
Max Temperature 81 °F 80 °F 93 °F (2017)
Min Temperature 61 °F 58 °F 60 °F (2016)
Cooling Degree Days 6    
Growing Degree Days 21 (Base 50)    
Moisture  
Dew Point 60 °F    
Average Humidity 75    
Maximum Humidity 93    
Minimum Humidity 51    
Precipitation  
Precipitation 0.00 in - - ()
Sea Level Pressure  
Sea Level Pressure 29.79 in    
Wind  
Wind Speed 6 mph (West)    
Max Wind Speed 17 mph    
Max Gust Speed 22 mph    
Visibility 7 miles    
Events      
Averages and records for this station are not official NWS values.
T = Trace of Precipitation, MM = Missing Value Source: NWS Daily Summary

Daily Weather History Graph

Daily Weather History Graph

Search for Another Location

Airport or City:

Trip Planner

Search our weather history database for the weather conditions in past years. The results will help you decide how hot, cold, wet, or windy it might be!

Date:

Astronomy

Jun. 12, 2014 Rise Set
Actual Time 5:12 AM CDT 8:20 PM CDT
Civil Twilight 4:39 AM CDT 8:54 PM CDT
Nautical Twilight 3:55 AM CDT 9:37 PM CDT
Astronomical Twilight 3:04 AM CDT 10:28 PM CDT
Moon 7:51 PM CDT (6/12) 4:54 AM CDT (6/12)
Length of Visible Light 16h 15m
Length of Day
15h 07m
Full, 100% of the Moon is Illuminated
Jun 12
Full
Jun 12
Full
Jun 19
Last Quarter
Jun 27
New
Jul 5
First Quarter

Hourly Weather History & Observations

Time (CDT) Temp. Heat Index Dew Point Humidity Pressure Visibility Wind Dir Wind Speed Gust Speed Precip Events Conditions
12:15 AM 63.0 °F - 60.3 °F 91% 29.75 in 2.0 mi WNW 3.5 mph - N/A   Overcast
12:55 AM 62.4 °F - 59.4 °F 90% 29.75 in 3.0 mi WNW 3.5 mph - N/A   Overcast
1:15 AM 62.2 °F - 59.4 °F 90% 29.75 in 2.5 mi West 3.5 mph - N/A   Overcast
1:35 AM 61.9 °F - 59.4 °F 91% 29.75 in 1.5 mi NW 4.6 mph - N/A   Overcast
1:55 AM 61.7 °F - 59.2 °F 91% 29.75 in 2.0 mi WNW 3.5 mph - N/A   Overcast
2:15 AM 61.2 °F - 58.8 °F 92% 29.74 in 3.0 mi NW 4.6 mph - N/A   Overcast
2:35 AM 61.0 °F - 58.6 °F 92% 29.73 in 3.0 mi NNW 3.5 mph - N/A   Overcast
2:55 AM 61.2 °F - 58.6 °F 91% 29.73 in 2.5 mi Calm Calm - N/A   Overcast
3:15 AM 61.0 °F - 58.6 °F 92% 29.75 in 3.0 mi West 3.5 mph - N/A   Overcast
3:35 AM 61.0 °F - 58.8 °F 93% 29.76 in 3.0 mi West 5.8 mph - N/A   Overcast
3:55 AM 61.2 °F - 59.0 °F 93% 29.77 in 3.0 mi West 5.8 mph - N/A   Overcast
4:15 AM 61.3 °F - 59.0 °F 92% 29.77 in 3.0 mi West 5.8 mph - N/A   Overcast
4:35 AM 61.3 °F - 59.0 °F 92% 29.76 in 3.0 mi West 3.5 mph - N/A   Overcast
4:55 AM 61.7 °F - 59.0 °F 91% 29.76 in 3.0 mi Calm Calm - N/A   Overcast
5:15 AM 61.7 °F - 59.0 °F 91% 29.75 in 2.0 mi Calm Calm - N/A   Overcast
5:35 AM 61.7 °F - 59.2 °F 91% 29.75 in 2.0 mi Calm Calm - N/A   Overcast
5:55 AM 61.9 °F - 59.2 °F 91% 29.75 in 2.0 mi Calm Calm - N/A   Overcast
6:15 AM 61.9 °F - 59.2 °F 91% 29.75 in 2.0 mi SW 3.5 mph - N/A   Overcast
6:35 AM 62.2 °F - 59.5 °F 91% 29.77 in 2.0 mi WSW 6.9 mph - N/A   Overcast
6:55 AM 62.2 °F - 59.4 °F 90% 29.77 in 2.0 mi West 3.5 mph - N/A   Overcast
7:15 AM 62.6 °F - 59.5 °F 90% 29.78 in 3.0 mi West 5.8 mph - N/A   Overcast
7:35 AM 62.6 °F - 59.5 °F 90% 29.80 in 3.0 mi West 8.1 mph - N/A   Overcast
7:55 AM 62.6 °F - 59.4 °F 89% 29.81 in 2.5 mi West 8.1 mph - N/A   Overcast
8:15 AM 62.6 °F - 59.5 °F 90% 29.82 in 2.5 mi West 8.1 mph - N/A   Overcast
8:35 AM 62.8 °F - 59.7 °F 90% 29.82 in 7.0 mi West 6.9 mph - N/A   Overcast
8:55 AM 63.5 °F - 59.9 °F 88% 29.83 in 7.0 mi West 6.9 mph - N/A   Overcast
9:15 AM 64.4 °F - 60.3 °F 86% 29.83 in 7.0 mi West 6.9 mph - N/A   Overcast
9:35 AM 65.5 °F - 60.3 °F 83% 29.83 in 10.0 mi West 9.2 mph - N/A   Overcast
9:55 AM 66.7 °F - 60.4 °F 80% 29.83 in 10.0 mi West 10.4 mph - N/A   Overcast
10:15 AM 68.2 °F - 60.6 °F 77% 29.83 in 10.0 mi West 9.2 mph - N/A   Mostly Cloudy
10:35 AM 69.1 °F - 61.0 °F 75% 29.82 in 10.0 mi WSW 5.8 mph - N/A   Mostly Cloudy
10:55 AM 70.5 °F - 61.5 °F 73% 29.82 in 10.0 mi WSW 10.4 mph - N/A   Mostly Cloudy
11:15 AM 71.4 °F - 61.5 °F 71% 29.82 in 10.0 mi WSW 9.2 mph - N/A   Mostly Cloudy
11:35 AM 72.3 °F - 61.5 °F 69% 29.82 in 10.0 mi West 8.1 mph - N/A   Scattered Clouds
11:55 AM 73.4 °F - 61.9 °F 67% 29.81 in 10.0 mi WSW 6.9 mph - N/A   Clear
12:15 PM 74.5 °F - 62.2 °F 66% 29.81 in 10.0 mi WSW 4.6 mph - N/A   Clear
12:35 PM 75.7 °F - 62.6 °F 64% 29.81 in 10.0 mi WSW 9.2 mph - N/A   Scattered Clouds
12:55 PM 76.5 °F - 63.1 °F 63% 29.81 in 10.0 mi WSW 10.4 mph - N/A   Scattered Clouds
1:15 PM 77.5 °F - 63.5 °F 62% 29.81 in 10.0 mi WSW 9.2 mph - N/A   Scattered Clouds
1:35 PM 78.4 °F - 63.1 °F 59% 29.80 in 10.0 mi WSW 12.7 mph 19.6 mph N/A   Mostly Cloudy
1:55 PM 79.0 °F - 63.7 °F 59% 29.80 in 10.0 mi West 9.2 mph 21.9 mph N/A   Scattered Clouds
2:15 PM 79.3 °F - 63.1 °F 57% 29.80 in 10.0 mi West 9.2 mph - N/A   Scattered Clouds
2:35 PM 79.7 °F - 62.6 °F 56% 29.79 in 10.0 mi West 12.7 mph 17.3 mph N/A   Scattered Clouds
2:55 PM 80.4 °F 81.6 °F 62.2 °F 54% 29.79 in 10.0 mi West 17.3 mph 21.9 mph N/A   Scattered Clouds
3:15 PM 80.6 °F 81.8 °F 62.8 °F 54% 29.78 in 10.0 mi WSW 12.7 mph 19.6 mph N/A   Scattered Clouds
3:35 PM 80.6 °F 81.7 °F 61.9 °F 53% 29.77 in 10.0 mi WSW 11.5 mph 20.7 mph N/A   Scattered Clouds
3:55 PM 81.0 °F 81.8 °F 61.3 °F 51% 29.77 in 10.0 mi West 17.3 mph - N/A   Scattered Clouds
4:15 PM 80.6 °F 81.5 °F 60.8 °F 51% 29.77 in 10.0 mi West 16.1 mph 20.7 mph N/A   Mostly Cloudy
4:35 PM 79.3 °F - 61.2 °F 54% 29.77 in 10.0 mi West 16.1 mph 21.9 mph N/A   Mostly Cloudy
4:55 PM 78.4 °F - 61.5 °F 56% 29.78 in 10.0 mi West 11.5 mph - N/A   Mostly Cloudy
5:15 PM 77.9 °F - 61.9 °F 58% 29.77 in 10.0 mi West 12.7 mph 17.3 mph N/A   Mostly Cloudy
5:35 PM 77.7 °F - 61.9 °F 58% 29.78 in 10.0 mi West 11.5 mph 18.4 mph N/A   Mostly Cloudy
5:55 PM 77.5 °F - 62.8 °F 60% 29.77 in 10.0 mi West 10.4 mph - N/A   Mostly Cloudy
6:15 PM 76.8 °F - 63.3 °F 63% 29.78 in 10.0 mi West 10.4 mph - N/A   Mostly Cloudy
6:35 PM 76.1 °F - 63.9 °F 66% 29.78 in 10.0 mi West 11.5 mph - N/A   Overcast
6:55 PM 75.6 °F - 63.1 °F 65% 29.79 in 10.0 mi West 10.4 mph 17.3 mph N/A   Mostly Cloudy
7:15 PM 74.8 °F - 61.5 °F 63% 29.79 in 10.0 mi WNW 11.5 mph 16.1 mph N/A   Overcast
7:35 PM 73.9 °F - 60.8 °F 63% 29.78 in 10.0 mi WNW 8.1 mph - N/A   Mostly Cloudy
7:55 PM 73.0 °F - 61.0 °F 66% 29.79 in 10.0 mi West 5.8 mph - N/A   Scattered Clouds
8:15 PM 72.3 °F - 60.8 °F 67% 29.79 in 10.0 mi West 10.4 mph - N/A   Scattered Clouds
8:35 PM 71.8 °F - 60.1 °F 67% 29.79 in 10.0 mi WNW 9.2 mph - N/A   Mostly Cloudy
8:55 PM 71.2 °F - 59.2 °F 66% 29.80 in 10.0 mi West 10.4 mph - N/A   Scattered Clouds
9:15 PM 70.7 °F - 58.8 °F 66% 29.82 in 10.0 mi West 9.2 mph - N/A   Scattered Clouds
9:35 PM 70.0 °F - 58.6 °F 67% 29.82 in 10.0 mi West 8.1 mph - N/A   Scattered Clouds
9:55 PM 69.8 °F - 58.6 °F 68% 29.82 in 10.0 mi West 11.5 mph - N/A   Scattered Clouds
10:15 PM 69.3 °F - 58.1 °F 68% 29.83 in 10.0 mi West 9.2 mph - N/A   Scattered Clouds
10:35 PM 68.4 °F - 58.5 °F 71% 29.83 in 10.0 mi West 9.2 mph - N/A   Clear
10:55 PM 68.0 °F - 58.6 °F 72% 29.83 in 10.0 mi West 9.2 mph - N/A   Mostly Cloudy
11:15 PM 67.3 °F - 58.5 °F 73% 29.84 in 10.0 mi West 10.4 mph - N/A   Mostly Cloudy
11:35 PM 66.4 °F - 58.1 °F 75% 29.85 in 10.0 mi West 10.4 mph - N/A   Scattered Clouds
11:55 PM 65.7 °F - 57.7 °F 76% 29.85 in 10.0 mi West 10.4 mph - N/A   Scattered Clouds